QPF
0.00 0.00 0.00 0.00 0.00 0.00 0.00 0.00 0.00 0.00 0.00 0.00 0.00 0.00 0.00 0.00 0.00 0.00 0.00 0.00 0.00 0.00 0.00 0.00 0.00 0.00 0.00
0.00 0.00 0.00 0.00 0.00 0.00 0.00 0.00 0.00 0.00 0.00 0.00 0.00 0.00 0.00 0.00 0.00 0.00 0.00 0.00 0.00 0.00 0.00 0.00 0.00 0.00 0.00
0.00 0.00 0.00 0.00 0.00 0.00 0.00 0.00 0.00 0.00 0.00 0.00 0.00 0.00 0.00 0.00 0.00 0.00 0.00 0.00 0.00 0.00 0.00 0.00 0.00 0.00 0.00
0.00 0.00 0.00 0.00 0.00 0.00 0.00 0.00 0.00 0.00 0.00 0.00 0.00 0.00 0.00 0.00 0.00 0.00 0.00 0.00 0.00 0.00 0.00 0.00 0.00 0.00 0.00
0.00 0.00 0.00 0.00 0.00 0.00 0.00 0.00 0.00 0.00 0.00 0.00 0.00 0.00 0.00 0.00 0.00 0.00 0.00 0.00 0.00 0.00 0.00 0.00 0.00 0.00 0.00
0.00 0.00 0.00 0.00 0.00 0.00 0.00 0.00 0.00 0.00 0.00 0.00 0.00 0.00 0.00 0.00 0.00 0.00 0.00 0.00 0.00 0.00 0.00 0.00 0.00 0.00 0.00
0.00 0.00 0.00 0.00 0.00 0.00 0.00 0.00 0.00 0.00 0.00 0.00 0.00 0.00 0.00 0.00 0.00 0.00 0.00 0.00 0.00 0.00 0.00 0.00 0.00 0.00 0.00
0.00 0.00 0.00 0.00 0.00 0.00 0.00 0.00 0.00 0.00 0.00 0.00 0.00 0.00 0.00 0.00 0.00 0.00 0.00 0.00 0.00 0.00 0.00 0.00 0.00 0.00 0.00
0.00 0.00 0.00 0.00 0.00 0.00 0.00 0.00 0.00 0.00 0.00 0.00 0.00 0.00 0.00 0.00 0.00 0.00 0.00 0.00 0.00 0.00 0.00 0.00 0.00 0.00 0.00
0.00 0.00 0.00 0.00 0.00 0.00 0.00 0.00 0.00 0.00 0.00 0.00 0.00 0.00 0.00 0.00 0.00 0.00 0.00 0.00 0.00 0.00 0.00 0.00 0.00 0.00 0.00
0.00 0.00 0.00 0.00 0.00 0.00 0.00 0.00 0.00 0.00 0.00 0.00 0.00 0.00 0.00 0.00 0.00 0.00 0.00 0.00 0.00 0.00 0.00 0.00 0.00 0.00 0.00
0.00 0.00 0.00 0.00 0.00 0.00 0.00 0.00 0.00 0.00 0.00 0.00 0.00 0.00 0.00 0.00 0.00 0.00 0.00 0.00 0.00 0.00 0.00 0.00 0.00 0.00 0.00
0.00 0.00 0.00 0.00 0.00 0.00 0.00 0.00 0.00 0.00 0.00 0.00 0.00 0.00 0.00 0.00 0.00 0.00 0.00 0.00 0.00 0.00 0.00 0.00 0.00 0.00 0.00
0.00 0.00 0.00 0.00 0.00 0.00 0.00 0.00 0.00 0.00 0.00 0.00 0.00 0.00 0.00 0.00 0.00 0.00 0.00 0.00 0.00 0.00 0.00 0.00 0.00 0.00 0.00
0.00 0.00 0.00 0.00 0.00 0.00 0.00 0.00 0.00 0.00 0.00 0.00 0.00 0.00 0.00 0.00 0.00 0.00 0.00 0.00 0.00 0.00 0.00 0.00 0.00 0.00 0.00
0.00 0.00 0.00 0.00 0.00 0.00 0.00 0.00 0.00 0.00 0.00 0.00 0.00 0.00 0.00 0.00 0.00 0.00 0.00 0.00 0.00 0.00 0.00 0.00 0.00 0.00 0.00
0.00 0.00 0.00 0.00 0.00 0.00 0.00 0.00 0.00 0.00 0.00 0.00 0.00 0.00 0.00 0.00 0.00 0.00 0.00 0.00 0.00 0.00 0.00 0.00 0.00 0.00 0.00
MSLP
1023.79 1024.30 1024.11 1024.15 1024.26 1024.08 1024.29 1024.25 1024.75 1024.88 1024.98 1025.05 1025.11 1025.23 1025.43 1025.64 1025.67 1025.76 1026.05 1026.22 1026.30 1026.20 1026.08 1025.87 1025.74 1025.69 1025.64
1023.67 1024.21 1024.24 1024.09 1024.41 1024.39 1024.40 1024.54 1024.67 1025.12 1025.11 1025.29 1025.32 1025.54 1025.71 1025.82 1025.81 1025.91 1026.14 1026.28 1026.31 1026.32 1026.26 1026.11 1025.96 1025.91 1025.85
1023.01 1023.60 1024.40 1024.37 1024.64 1024.65 1024.55 1024.69 1024.91 1025.21 1025.34 1025.46 1025.58 1025.67 1025.69 1025.69 1025.76 1025.96 1026.09 1026.20 1026.27 1026.31 1026.32 1026.28 1026.19 1026.09 1025.89
1022.95 1023.28 1023.81 1024.30 1024.48 1024.75 1024.78 1024.73 1024.83 1025.02 1025.19 1025.49 1025.45 1025.44 1025.52 1025.56 1025.63 1025.84 1025.99 1026.09 1026.15 1026.19 1026.19 1026.15 1026.10 1026.00 1025.88
1023.14 1023.46 1023.98 1024.21 1024.35 1024.62 1024.90 1024.84 1025.01 1025.29 1025.38 1025.17 1025.04 1025.14 1025.15 1025.19 1025.45 1025.60 1025.85 1025.93 1025.99 1026.04 1026.04 1026.07 1026.01 1025.92 1025.81
1023.20 1023.60 1023.73 1023.73 1024.22 1024.78 1025.08 1025.19 1025.39 1025.46 1025.54 1025.02 1024.79 1025.18 1024.99 1025.15 1025.25 1025.59 1025.72 1025.76 1025.77 1025.85 1025.96 1025.91 1026.03 1025.97 1025.84
1023.15 1023.69 1023.72 1023.92 1024.49 1025.09 1025.30 1025.50 1025.62 1025.65 1025.74 1025.12 1024.90 1025.02 1024.77 1024.97 1025.30 1025.54 1025.53 1025.44 1025.45 1025.54 1025.72 1025.85 1025.77 1025.70 1025.57
1023.53 1024.01 1024.01 1024.37 1024.98 1025.37 1025.53 1025.74 1025.77 1025.70 1025.82 1025.71 1025.04 1025.16 1024.91 1024.98 1025.26 1025.42 1025.38 1025.18 1025.14 1025.34 1025.64 1025.68 1025.59 1025.54 1025.34
1024.20 1024.37 1024.61 1024.80 1024.88 1025.44 1025.69 1025.87 1025.69 1025.60 1025.86 1026.01 1025.64 1025.64 1025.32 1025.14 1025.04 1025.26 1025.34 1025.25 1025.25 1025.33 1025.35 1025.27 1025.17 1024.99 1024.90
1024.76 1024.90 1024.98 1025.24 1025.30 1025.48 1025.68 1025.90 1025.73 1025.86 1026.19 1026.34 1026.33 1026.23 1025.87 1025.13 1025.19 1025.10 1025.20 1025.05 1025.01 1025.03 1025.06 1024.86 1024.76 1024.79 1024.68
1024.65 1024.89 1025.07 1025.33 1025.54 1025.69 1025.95 1026.16 1026.18 1026.15 1026.41 1026.63 1026.69 1026.75 1026.59 1026.14 1025.44 1025.17 1025.11 1025.12 1025.09 1025.00 1024.80 1024.58 1024.33 1024.40 1024.54
1024.73 1025.03 1025.12 1025.29 1025.67 1025.92 1026.05 1026.28 1026.36 1026.50 1026.56 1026.83 1027.01 1027.00 1026.97 1026.76 1026.27 1025.28 1025.20 1024.97 1024.89 1024.76 1024.65 1024.42 1024.20 1023.93 1023.70
1024.83 1024.99 1025.13 1025.38 1025.77 1026.25 1026.44 1026.52 1026.63 1026.63 1026.68 1026.74 1026.93 1026.97 1026.98 1026.84 1026.44 1025.87 1025.69 1024.83 1024.88 1024.76 1024.65 1024.35 1024.18 1024.03 1023.76
1024.62 1024.80 1025.23 1025.60 1025.85 1025.83 1026.21 1026.32 1026.43 1026.30 1026.19 1026.33 1026.63 1026.74 1026.72 1026.57 1026.34 1025.62 1025.45 1025.39 1024.56 1024.46 1024.22 1023.81 1023.63 1023.47 1023.17
1024.48 1024.74 1025.01 1025.28 1025.50 1025.78 1026.02 1026.11 1026.20 1026.09 1026.04 1026.04 1026.16 1026.29 1026.32 1026.35 1025.93 1025.21 1024.94 1024.60 1024.24 1023.87 1023.58 1023.32 1023.05 1022.74 1022.40
1024.32 1024.47 1024.73 1024.96 1025.22 1025.40 1025.69 1025.85 1025.93 1025.87 1025.82 1025.80 1025.87 1025.91 1025.73 1025.12 1024.74 1024.40 1024.37 1024.15 1023.78 1023.48 1023.29 1023.02 1022.17 1021.69 1021.47
1023.94 1024.14 1024.39 1024.57 1024.76 1025.04 1025.28 1025.46 1025.51 1025.56 1025.49 1025.33 1025.47 1025.65 1025.52 1024.98 1023.77 1023.15 1023.77 1023.62 1023.56 1023.19 1022.90 1022.52 1021.86 1020.97 1020.83
Thickness
5549 5541 5541 5537 5534 5534 5532 5530 5523 5520 5515 5511 5508 5505 5500 5496 5494 5490 5484 5479 5475 5472 5469 5467 5465 5462 5461
5539 5532 5530 5529 5524 5524 5523 5519 5515 5510 5506 5501 5499 5495 5491 5488 5485 5481 5475 5470 5466 5462 5458 5455 5453 5450 5449
5536 5529 5519 5518 5514 5513 5513 5509 5505 5500 5496 5493 5490 5487 5484 5481 5478 5473 5467 5462 5457 5452 5447 5444 5441 5438 5436
5527 5522 5517 5511 5508 5504 5502 5501 5497 5492 5489 5485 5484 5481 5478 5474 5471 5465 5459 5453 5448 5443 5438 5434 5430 5426 5424
5515 5512 5507 5504 5501 5497 5493 5492 5488 5484 5481 5480 5479 5476 5472 5468 5463 5458 5451 5444 5439 5434 5429 5423 5418 5415 5413
5505 5503 5502 5501 5494 5488 5484 5479 5477 5474 5472 5473 5472 5467 5464 5459 5455 5448 5442 5436 5430 5424 5418 5413 5408 5404 5402
5499 5494 5493 5491 5484 5478 5475 5470 5467 5466 5463 5464 5464 5458 5456 5450 5444 5438 5433 5429 5423 5417 5410 5403 5399 5395 5393
5487 5483 5483 5479 5473 5467 5464 5462 5460 5458 5455 5451 5454 5448 5446 5440 5434 5429 5423 5420 5415 5407 5400 5394 5389 5385 5383
5475 5473 5470 5467 5465 5460 5456 5453 5454 5452 5447 5442 5441 5436 5433 5430 5424 5418 5412 5408 5403 5397 5391 5385 5380 5377 5375
5464 5462 5459 5457 5455 5452 5449 5445 5446 5442 5436 5430 5427 5422 5419 5421 5413 5407 5402 5397 5391 5386 5381 5376 5371 5367 5364
5457 5454 5451 5449 5446 5443 5440 5437 5435 5432 5425 5420 5415 5410 5406 5402 5399 5396 5391 5384 5380 5374 5369 5365 5361 5356 5352
5448 5446 5444 5441 5438 5434 5431 5428 5424 5420 5415 5409 5403 5398 5392 5386 5382 5383 5378 5373 5368 5362 5357 5353 5348 5344 5340
5440 5438 5436 5434 5430 5425 5421 5418 5414 5410 5405 5400 5394 5388 5382 5376 5372 5367 5363 5359 5352 5348 5342 5335 5330 5325 5322
5435 5432 5428 5425 5421 5419 5414 5410 5406 5403 5399 5394 5387 5380 5373 5367 5361 5357 5350 5344 5343 5334 5329 5323 5316 5310 5306
5427 5425 5422 5419 5415 5411 5406 5402 5398 5395 5391 5386 5379 5373 5365 5357 5351 5348 5343 5337 5330 5324 5316 5312 5303 5296 5291
5421 5419 5417 5413 5408 5405 5399 5395 5390 5387 5382 5378 5372 5365 5359 5354 5349 5342 5334 5327 5319 5312 5304 5298 5295 5281 5276
5416 5413 5409 5406 5403 5398 5392 5387 5383 5378 5374 5371 5364 5356 5350 5344 5344 5338 5327 5316 5308 5301 5293 5285 5279 5271 5261